"Pseudo-MPEC" for P21Y08t

Created 2024 Sep 7 8:22:19 UT using Find_Orb

Click here for an explanation of pseudo-MPECs

 
 Astrometry: 
     P21Y08t* C2024 09 04.52438300 28 24.473-20 02 26.97   ~94Eb 21.47wXNEOCPF52
     P21Y08t  C2024 09 04.53492900 28 24.968-20 02 43.59   ~94Eb 21.56wXNEOCPF52
     P21Y08t  C2024 09 04.55607300 28 26.008-20 03 17.48   ~94Eb 21.36wXNEOCPF52
     P21Y08t  C2024 09 04.60842400 28 28.603-20 04 40.59   ~94Kq 21.40GVNEOCPF51
     P21Y08t  C2024 09 04.60906500 28 28.617-20 04 41.51   ~94Kq 21.38GVNEOCPF51
     P21Y08t !C2024 09 05.15308000 28 58.691-20 19 15.19   ~95I7 20.9 GVNEOCPJ04
     P21Y08t !C2024 09 05.16901200 28 59.468-20 19 40.91   ~95I7 21.2 GVNEOCPJ04

Station data:
(F51) Pan-STARRS 1, Haleakala  (N20.707234 W156.255910)  US/Hawaii.
   Observers J. Bulger, T. Lowe, A. Schultz, M. Willman. Measurers K.
   Chambers, S. Chastel, T. de Boer, L. Denneau, J. Fairlamb, H. Flewelling,
   M. Huber, C.-C. Lin, E. Magnier, Y. Ramanjooloo, R. Wainscoat, R. Weryk.
   1.8-m Ritchey-Chrétien + CCD.
(F52) Pan-STARRS 2, Haleakala  (N20.707382 W156.255910)  US/Hawaii.
   Observers J. Bulger, T. Dukes, T. Lowe, A. Schultz, M. Willman. Measurers
   K. Chambers, S. Chastel, T. de Boer, L. Denneau, J. Fairlamb, H.
   Flewelling, M. Huber, C.-C. Lin, E. Magnier, Y. Ramanjooloo, R. Wainscoat,
   R. Weryk. 1.8-m Ritchey-Chrétien + CCD.
(J04) ESA Optical Ground Station, Tenerife  (N28.300921 W16.511830)  Canary
   Islands (Spain).  Observer R. Kresken. Measurers M. Micheli, D. Koschny,
   E. Schwab, M. Busch, A. Knöfel. 1.0-m f/4.4 reflector + CCD.

Orbital elements:  P21Y08t
   Perihelion 2024 Sep 8.79650 +/- 25.8 TT = 19:06:57 (JD 2460562.29650)
Epoch 2024 Sep  5.0 TT = JDT 2460558.5   Earth MOID: 0.5531   Ju: 0.4485
M 359.40399305 +/- 5.3              (J2000 ecliptic)             AutoNEOCP
n   0.15698855 +/- 0.0354           Peri.  210.17935 +/- 21
a   3.40322544 +/- 0.512            Node   141.22902 +/- 2.8
e   0.5477093 +/- 0.052             Incl.   16.82699 +/- 1.5
P   6.27821                H 20.82  G  0.15   U 10.5  SR
q 1.53924709 +/- 0.0853    Q 5.26720379 +/- 0.805
From 7 observations 2024 Sept. 4-5 (15.5 hr); mean residual 0".14
Residuals in arcseconds: 
240904 F52  .20+  .20-    240904 F51  .06+  .07+    240905 J04  .11+  .29-    
240904 F52  .08-  .06+    240904 F51  .19-  .16+    
240904 F52  .00   .06-    240905 J04  .00   .12+    

Ephemerides (geocentric):
Date (UTC) HH   RA             Dec           delta  r     elong  mag " sig PA
---- --------  ------------   ------------  ------ ------ -----  --- --------
2024 09 07 08  00 30 52.788   -21 16 29.20  .56877 1.5393 154.0 21.4 38.5  26
2024 09 07 09  00 30 54.885   -21 17 34.23  .56877 1.5393 154.0 21.4 39.9  26
2024 09 07 10  00 30 56.980   -21 18 39.23  .56877 1.5393 154.0 21.4 41.2  26
2024 09 07 11  00 30 59.071   -21 19 44.19  .56877 1.5393 154.0 21.4 42.6  26
2024 09 07 12  00 31 01.160   -21 20 49.12  .56876 1.5393 154.0 21.4 44.0  26
2024 09 07 13  00 31 03.245   -21 21 54.01  .56876 1.5393 154.0 21.4 45.4  26
2024 09 07 14  00 31 05.328   -21 22 58.87  .56876 1.5393 154.0 21.4 46.8  26
2024 09 07 15  00 31 07.408   -21 24 03.70  .56876 1.5393 154.1 21.4 48.3  26
2024 09 07 16  00 31 09.484   -21 25 08.49  .56876 1.5393 154.1 21.4 49.7  26
2024 09 07 17  00 31 11.558   -21 26 13.25  .56876 1.5393 154.1 21.4 51.2  26
2024 09 07 18  00 31 13.629   -21 27 17.98  .56877 1.5393 154.1 21.4 52.8  26
2024 09 07 19  00 31 15.698   -21 28 22.67  .56877 1.5393 154.1 21.4 54.3  26
2024 09 07 20  00 31 17.763   -21 29 27.32  .56877 1.5393 154.1 21.4 55.9  26
2024 09 07 21  00 31 19.825   -21 30 31.94  .56877 1.5393 154.1 21.4 57.5  26
2024 09 07 22  00 31 21.885   -21 31 36.52  .56877 1.5393 154.1 21.4 59.1  26
2024 09 07 23  00 31 23.941   -21 32 41.07  .56877 1.5393 154.1 21.4 60.7  26
2024 09 08 00  00 31 25.995   -21 33 45.59  .56878 1.5393 154.1 21.4 62.4  26
2024 09 08 01  00 31 28.046   -21 34 50.06  .56878 1.5393 154.1 21.4 64.0  26
2024 09 08 02  00 31 30.093   -21 35 54.51  .56878 1.5393 154.1 21.4 65.7  26
2024 09 08 03  00 31 32.138   -21 36 58.91  .56879 1.5393 154.1 21.4 67.4  26
2024 09 08 04  00 31 34.181   -21 38 03.28  .56879 1.5393 154.1 21.4 69.2  26
2024 09 08 05  00 31 36.220   -21 39 07.62  .56880 1.5393 154.1 21.4 71.0  26
2024 09 08 06  00 31 38.256   -21 40 11.92  .56880 1.5393 154.1 21.4 72.7  26
2024 09 08 07  00 31 40.290   -21 41 16.18  .56881 1.5393 154.1 21.4 74.6  26
2024 09 08 08  00 31 42.320   -21 42 20.40  .56881 1.5393 154.1 21.4 76.4  25
2024 09 08 09  00 31 44.348   -21 43 24.59  .56882 1.5393 154.1 21.4 78.2  25
2024 09 08 10  00 31 46.373   -21 44 28.74  .56882 1.5393 154.1 21.4 80.1  25
2024 09 08 11  00 31 48.395   -21 45 32.86  .56883 1.5393 154.1 21.4 82.0  25
2024 09 08 12  00 31 50.414   -21 46 36.93  .56883 1.5393 154.1 21.4 83.9  25
2024 09 08 13  00 31 52.430   -21 47 40.97  .56884 1.5392 154.1 21.4 85.9  25
2024 09 08 14  00 31 54.443   -21 48 44.97  .56885 1.5392 154.1 21.4 87.8  25
2024 09 08 15  00 31 56.454   -21 49 48.94  .56886 1.5392 154.1 21.4 89.8  25
2024 09 08 16  00 31 58.461   -21 50 52.86  .56886 1.5392 154.1 21.4 91.8  25
2024 09 08 17  00 32 00.466   -21 51 56.75  .56887 1.5392 154.1 21.4 93.9  25
2024 09 08 18  00 32 02.468   -21 53 00.60  .56888 1.5392 154.1 21.4 95.9  25
2024 09 08 19  00 32 04.467   -21 54 04.41  .56889 1.5392 154.1 21.4 98.0  25
2024 09 08 20  00 32 06.463   -21 55 08.19  .56890 1.5392 154.1 21.4  100  25
2024 09 08 21  00 32 08.456   -21 56 11.92  .56891 1.5392 154.1 21.4  102  25
2024 09 08 22  00 32 10.447   -21 57 15.62  .56892 1.5392 154.1 21.4  104  25
2024 09 08 23  00 32 12.434   -21 58 19.28  .56893 1.5392 154.1 21.4  107  25
2024 09 09 00  00 32 14.419   -21 59 22.89  .56894 1.5392 154.1 21.4  109  25
2024 09 09 01  00 32 16.401   -22 00 26.47  .56895 1.5392 154.1 21.4  111  25
2024 09 09 02  00 32 18.380   -22 01 30.01  .56896 1.5392 154.1 21.4  113  25
2024 09 09 03  00 32 20.356   -22 02 33.51  .56897 1.5393 154.1 21.4  115  25
2024 09 09 04  00 32 22.329   -22 03 36.98  .56898 1.5393 154.1 21.4  118  25
2024 09 09 05  00 32 24.300   -22 04 40.40  .56899 1.5393 154.1 21.4  120  25
2024 09 09 06  00 32 26.267   -22 05 43.78  .56901 1.5393 154.1 21.4  122  25
2024 09 09 07  00 32 28.232   -22 06 47.12  .56902 1.5393 154.1 21.4  125  25